Time,TemperatureF,DewpointF,PressureIn,WindDirection,WindDirectionDegrees,WindSpeedMPH,WindSpeedGustMPH,Humidity,HourlyPrecipIn,Conditions,Clouds,dailyrainin,SolarRadiationWatts/m^2,SoftwareType,DateUTC
2013-07-26 00:02:00,63.8,61.7,30.01,NNW,336,1.0,2.0,93,0.00,,,0.00,0,Wunderground v.1.15,2013-07-26 04:02:00,
2013-07-26 00:05:00,63.6,61.5,30.02,NW,323,1.0,3.0,93,0.00,,,0.00,0,Wunderground v.1.15,2013-07-26 04:05:00,
2013-07-26 00:06:00,63.6,61.5,30.02,NNW,342,1.0,6.0,93,0.00,,,0.00,0,Wunderground v.1.15,2013-07-26 04:06:00,
2013-07-26 00:08:00,63.6,61.5,30.02,NE,43,1.0,6.0,93,0.00,,,0.00,0,Wunderground v.1.15,2013-07-26 04:08:00,
2013-07-26 00:10:00,63.5,61.4,30.02,NNW,337,2.0,4.0,93,0.00,,,0.00,0,Wunderground v.1.15,2013-07-26 04:10:00,
2013-07-26 00:15:00,63.4,61.6,30.02,North,5,1.0,4.0,94,0.00,,,0.00,0,Wunderground v.1.15,2013-07-26 04:15:00,
2013-07-26 00:22:00,63.2,61.7,30.01,NNE,30,2.0,2.0,95,0.00,,,0.00,0,Wunderground v.1.15,2013-07-26 04:22:00,
2013-07-26 00:27:00,63.1,61.6,30.01,North,11,2.0,4.0,95,0.00,,,0.00,0,Wunderground v.1.15,2013-07-26 04:27:00,
2013-07-26 00:34:00,63.0,61.8,30.02,NE,48,1.0,2.0,96,0.00,,,0.00,0,Wunderground v.1.15,2013-07-26 04:34:00,
2013-07-26 00:39:00,62.9,61.4,30.01,NNE,19,1.0,2.0,95,0.00,,,0.00,0,Wunderground v.1.15,2013-07-26 04:39:00,
2013-07-26 00:45:00,62.8,61.6,30.01,NE,43,1.0,1.0,96,0.00,,,0.00,0,Wunderground v.1.15,2013-07-26 04:45:00,
2013-07-26 00:50:00,62.8,61.6,30.01,NE,47,1.0,1.0,96,0.00,,,0.01,0,Wunderground v.1.15,2013-07-26 04:50:00,
2013-07-26 00:57:00,62.8,61.9,30.01,North,10,0.0,1.0,97,0.00,,,0.01,0,Wunderground v.1.15,2013-07-26 04:57:00,
2013-07-26 01:02:00,62.8,61.6,30.01,NW,326,1.0,1.0,96,0.00,,,0.01,0,Wunderground v.1.15,2013-07-26 05:02:00,
2013-07-26 01:08:00,62.8,61.9,30.01,NNW,345,1.0,1.0,97,0.00,,,0.02,0,Wunderground v.1.15,2013-07-26 05:08:00,
2013-07-26 01:14:00,62.7,61.8,30.00,NNW,343,1.0,3.0,97,0.19,,,0.03,0,Wunderground v.1.15,2013-07-26 05:14:00,
2013-07-26 01:19:00,62.7,61.8,30.00,NE,45,1.0,1.0,97,0.09,,,0.04,0,Wunderground v.1.15,2013-07-26 05:19:00,
2013-07-26 01:24:00,62.7,61.8,30.01,NE,52,1.0,4.0,97,0.09,,,0.04,0,Wunderground v.1.15,2013-07-26 05:24:00,
2013-07-26 01:30:00,62.7,61.8,30.01,ENE,57,1.0,1.0,97,0.06,,,0.05,0,Wunderground v.1.15,2013-07-26 05:30:00,
2013-07-26 01:35:00,62.7,61.8,30.00,ENE,65,0.0,1.0,97,0.06,,,0.05,0,Wunderground v.1.15,2013-07-26 05:35:00,
2013-07-26 01:40:00,62.7,61.8,30.00,NNW,339,0.0,1.0,97,0.05,,,0.05,0,Wunderground v.1.15,2013-07-26 05:40:00,
2013-07-26 01:45:00,62.6,61.7,30.00,NNE,28,0.0,1.0,97,0.00,,,0.06,0,Wunderground v.1.15,2013-07-26 05:45:00,
2013-07-26 01:51:00,62.6,61.7,30.00,NNW,341,0.0,0.0,97,0.00,,,0.06,0,Wunderground v.1.15,2013-07-26 05:51:00,
2013-07-26 01:56:00,62.6,61.7,29.99,North,360,0.0,0.0,97,0.07,,,0.07,0,Wunderground v.1.15,2013-07-26 05:56:00,
2013-07-26 02:01:00,62.5,61.6,29.99,NNE,15,0.0,0.0,97,0.07,,,0.07,0,Wunderground v.1.15,2013-07-26 06:01:00,
2013-07-26 02:08:00,62.6,61.7,29.99,NNW,329,0.0,1.0,97,0.06,,,0.08,0,Wunderground v.1.15,2013-07-26 06:08:00,
2013-07-26 02:13:00,62.6,61.7,29.99,North,9,0.0,1.0,97,0.06,,,0.08,0,Wunderground v.1.15,2013-07-26 06:13:00,
2013-07-26 02:18:00,62.6,62.0,29.99,WNW,293,0.0,1.0,98,0.04,,,0.08,0,Wunderground v.1.15,2013-07-26 06:18:00,
2013-07-26 02:24:00,62.7,62.1,29.99,NE,56,0.0,1.0,98,0.00,,,0.08,0,Wunderground v.1.15,2013-07-26 06:24:00,
2013-07-26 02:31:00,62.7,62.1,29.98,NNW,340,0.0,1.0,98,0.00,,,0.09,0,Wunderground v.1.15,2013-07-26 06:31:00,
2013-07-26 02:36:00,62.7,62.1,29.99,ENE,61,0.0,1.0,98,0.00,,,0.09,0,Wunderground v.1.15,2013-07-26 06:36:00,
2013-07-26 02:42:00,62.8,62.2,29.98,NNE,28,0.0,0.0,98,0.00,,,0.09,0,Wunderground v.1.15,2013-07-26 06:42:00,
2013-07-26 02:48:00,62.9,62.3,29.98,NNE,14,0.0,0.0,98,0.00,,,0.10,0,Wunderground v.1.15,2013-07-26 06:48:00,
2013-07-26 02:53:00,62.9,62.3,29.98,NNW,339,1.0,1.0,98,0.00,,,0.10,0,Wunderground v.1.15,2013-07-26 06:53:00,
2013-07-26 02:58:00,63.0,62.4,29.98,NE,43,1.0,1.0,98,0.00,,,0.10,0,Wunderground v.1.15,2013-07-26 06:58:00,
2013-07-26 03:03:00,63.1,62.5,29.98,West,279,0.0,4.0,98,0.00,,,0.10,0,Wunderground v.1.15,2013-07-26 07:03:00,
2013-07-26 03:09:00,63.1,62.5,29.98,NW,326,0.0,4.0,98,0.00,,,0.11,0,Wunderground v.1.15,2013-07-26 07:09:00,
2013-07-26 03:14:00,63.2,62.6,29.97,NE,42,0.0,3.0,98,0.00,,,0.11,0,Wunderground v.1.15,2013-07-26 07:14:00,
2013-07-26 03:21:00,63.2,62.6,29.97,North,355,1.0,1.0,98,0.00,,,0.11,0,Wunderground v.1.15,2013-07-26 07:21:00,
2013-07-26 03:26:00,63.2,62.6,29.97,NW,316,0.0,2.0,98,0.00,,,0.11,0,Wunderground v.1.15,2013-07-26 07:26:00,
2013-07-26 03:32:00,63.2,62.6,29.97,NNE,21,1.0,1.0,98,0.00,,,0.12,0,Wunderground v.1.15,2013-07-26 07:32:00,
2013-07-26 03:38:00,63.2,62.6,29.97,NNW,341,1.0,2.0,98,0.00,,,0.12,0,Wunderground v.1.15,2013-07-26 07:38:00,
2013-07-26 03:43:00,63.3,62.7,29.97,NW,310,0.0,1.0,98,0.00,,,0.12,0,Wunderground v.1.15,2013-07-26 07:43:00,
2013-07-26 03:48:00,63.3,62.7,29.97,SE,136,0.0,1.0,98,0.00,,,0.12,0,Wunderground v.1.15,2013-07-26 07:48:00,
2013-07-26 03:53:00,63.3,62.7,29.97,WNW,302,0.0,0.0,98,0.00,,,0.12,0,Wunderground v.1.15,2013-07-26 07:53:00,
2013-07-26 03:59:00,63.4,62.8,29.97,North,11,0.0,1.0,98,0.00,,,0.13,0,Wunderground v.1.15,2013-07-26 07:59:00,
2013-07-26 04:04:00,63.5,63.2,29.97,North,351,0.0,0.0,99,0.00,,,0.13,0,Wunderground v.1.15,2013-07-26 08:04:00,
2013-07-26 04:09:00,63.5,63.2,29.96,North,350,1.0,1.0,99,0.00,,,0.13,0,Wunderground v.1.15,2013-07-26 08:09:00,
2013-07-26 04:15:00,63.6,63.3,29.96,NW,313,1.0,2.0,99,0.00,,,0.13,0,Wunderground v.1.15,2013-07-26 08:15:00,
2013-07-26 04:20:00,63.6,63.3,29.96,WNW,285,1.0,1.0,99,0.00,,,0.13,0,Wunderground v.1.15,2013-07-26 08:20:00,
2013-07-26 04:26:00,63.7,63.4,29.96,North,360,0.0,1.0,99,0.00,,,0.14,0,Wunderground v.1.15,2013-07-26 08:26:00,
2013-07-26 04:32:00,63.7,63.4,29.96,NNE,26,0.0,1.0,99,0.00,,,0.14,0,Wunderground v.1.15,2013-07-26 08:32:00,
2013-07-26 04:38:00,63.8,63.5,29.95,NNE,19,0.0,1.0,99,0.00,,,0.14,0,Wunderground v.1.15,2013-07-26 08:38:00,
2013-07-26 04:43:00,63.8,63.2,29.95,NNE,32,0.0,2.0,98,0.00,,,0.14,0,Wunderground v.1.15,2013-07-26 08:43:00,
2013-07-26 04:48:00,64.0,63.4,29.96,NNE,16,0.0,2.0,98,0.00,,,0.14,0,Wunderground v.1.15,2013-07-26 08:48:00,
2013-07-26 04:54:00,63.9,63.3,29.96,NNE,28,0.0,2.0,98,0.00,,,0.14,0,Wunderground v.1.15,2013-07-26 08:54:00,
2013-07-26 05:00:00,64.0,63.4,29.95,NNW,336,0.0,0.0,98,0.00,,,0.14,0,Wunderground v.1.15,2013-07-26 09:00:00,
2013-07-26 05:06:00,64.1,63.8,29.95,NNW,329,0.0,1.0,99,0.00,,,0.15,0,Wunderground v.1.15,2013-07-26 09:06:00,
2013-07-26 05:11:00,64.2,63.9,29.95,North,9,0.0,1.0,99,0.00,,,0.15,0,Wunderground v.1.15,2013-07-26 09:11:00,
2013-07-26 05:16:00,64.2,63.9,29.95,ENE,74,0.0,2.0,99,0.00,,,0.15,0,Wunderground v.1.15,2013-07-26 09:16:00,
2013-07-26 05:23:00,64.3,64.0,29.95,North,5,0.0,5.0,99,0.00,,,0.15,0,Wunderground v.1.15,2013-07-26 09:23:00,
2013-07-26 05:28:00,64.3,64.0,29.94,North,355,0.0,5.0,99,0.00,,,0.15,0,Wunderground v.1.15,2013-07-26 09:28:00,
2013-07-26 05:34:00,64.3,64.0,29.94,NNW,348,0.0,2.0,99,0.00,,,0.15,0,Wunderground v.1.15,2013-07-26 09:34:00,
2013-07-26 05:39:00,64.3,64.0,29.94,NNE,27,0.0,1.0,99,0.00,,,0.16,0,Wunderground v.1.15,2013-07-26 09:39:00,
2013-07-26 05:45:00,64.4,64.1,29.94,SW,234,0.0,2.0,99,0.00,,,0.16,0,Wunderground v.1.15,2013-07-26 09:45:00,
2013-07-26 05:50:00,64.4,64.1,29.94,NNW,337,1.0,1.0,99,0.00,,,0.16,0,Wunderground v.1.15,2013-07-26 09:50:00,
2013-07-26 05:56:00,64.4,64.1,29.95,North,360,1.0,2.0,99,0.00,,,0.17,0,Wunderground v.1.15,2013-07-26 09:56:00,
2013-07-26 06:02:00,64.4,64.1,29.94,North,360,0.0,0.0,99,0.12,,,0.18,0,Wunderground v.1.15,2013-07-26 10:02:00,
2013-07-26 06:07:00,64.4,64.1,29.94,North,351,0.0,1.0,99,0.11,,,0.18,0,Wunderground v.1.15,2013-07-26 10:07:00,
2013-07-26 06:13:00,64.4,64.1,29.93,NNW,329,1.0,1.0,99,0.05,,,0.18,0,Wunderground v.1.15,2013-07-26 10:13:00,
2013-07-26 06:18:00,64.4,64.1,29.93,NNW,333,2.0,3.0,99,0.04,,,0.19,5,Wunderground v.1.15,2013-07-26 10:18:00,
2013-07-26 06:23:00,64.4,64.1,29.94,North,355,2.0,2.0,99,0.10,,,0.20,5,Wunderground v.1.15,2013-07-26 10:23:00,
2013-07-26 06:28:00,64.4,64.1,29.94,NNE,22,1.0,2.0,99,0.11,,,0.21,0,Wunderground v.1.15,2013-07-26 10:28:00,
2013-07-26 06:33:00,64.4,64.1,29.94,North,5,1.0,4.0,99,0.08,,,0.21,5,Wunderground v.1.15,2013-07-26 10:33:00,
2013-07-26 06:40:00,64.3,64.0,29.93,NE,44,2.0,2.0,99,0.06,,,0.22,7,Wunderground v.1.15,2013-07-26 10:40:00,
2013-07-26 06:45:00,64.3,64.0,29.94,North,355,1.0,3.0,99,0.06,,,0.22,7,Wunderground v.1.15,2013-07-26 10:45:00,
2013-07-26 06:50:00,64.4,64.1,29.93,North,5,1.0,2.0,99,0.06,,,0.23,9,Wunderground v.1.15,2013-07-26 10:50:00,
2013-07-26 06:55:00,64.4,64.1,29.93,North,5,1.0,2.0,99,0.06,,,0.23,12,Wunderground v.1.15,2013-07-26 10:55:00,
2013-07-26 07:02:00,64.4,64.1,29.93,North,9,1.0,4.0,99,0.05,,,0.24,12,Wunderground v.1.15,2013-07-26 11:02:00,
2013-07-26 07:08:00,64.3,64.0,29.93,NW,317,1.0,4.0,99,0.05,,,0.24,14,Wunderground v.1.15,2013-07-26 11:08:00,
2013-07-26 07:13:00,64.4,64.1,29.92,NW,311,0.0,1.0,99,0.04,,,0.24,12,Wunderground v.1.15,2013-07-26 11:13:00,
2013-07-26 07:18:00,64.3,64.0,29.92,North,355,1.0,1.0,99,0.00,,,0.24,14,Wunderground v.1.15,2013-07-26 11:18:00,
2013-07-26 07:23:00,64.3,64.0,29.92,WNW,302,1.0,4.0,99,0.00,,,0.25,11,Wunderground v.1.15,2013-07-26 11:23:00,
2013-07-26 07:29:00,64.3,64.0,29.92,NNW,331,1.0,3.0,99,0.00,,,0.25,7,Wunderground v.1.15,2013-07-26 11:29:00,
2013-07-26 07:35:00,64.3,64.0,29.92,West,277,1.0,3.0,99,0.00,,,0.25,5,Wunderground v.1.15,2013-07-26 11:35:00,
2013-07-26 07:40:00,64.3,64.0,29.92,NW,320,1.0,2.0,99,0.00,,,0.25,7,Wunderground v.1.15,2013-07-26 11:40:00,
2013-07-26 07:46:00,64.2,63.9,29.93,NNW,332,1.0,6.0,99,0.00,,,0.25,7,Wunderground v.1.15,2013-07-26 11:46:00,
2013-07-26 07:51:00,64.2,63.9,29.92,NW,306,1.0,2.0,99,0.00,,,0.25,12,Wunderground v.1.15,2013-07-26 11:51:00,
2013-07-26 07:56:00,64.3,64.0,29.92,NW,307,1.0,3.0,99,0.00,,,0.26,19,Wunderground v.1.15,2013-07-26 11:56:00,
2013-07-26 08:02:00,64.3,64.0,29.92,NE,44,1.0,3.0,99,0.00,,,0.26,21,Wunderground v.1.15,2013-07-26 12:02:00,
2013-07-26 08:08:00,64.4,64.1,29.93,SE,145,1.0,3.0,99,0.05,,,0.27,25,Wunderground v.1.15,2013-07-26 12:08:00,
2013-07-26 08:13:00,64.4,64.1,29.92,North,355,1.0,2.0,99,0.12,,,0.28,23,Wunderground v.1.15,2013-07-26 12:13:00,
2013-07-26 08:18:00,64.4,64.1,29.92,North,5,1.0,4.0,99,0.11,,,0.29,23,Wunderground v.1.15,2013-07-26 12:18:00,
2013-07-26 08:23:00,64.5,64.2,29.91,NW,326,1.0,2.0,99,0.08,,,0.30,26,Wunderground v.1.15,2013-07-26 12:23:00,
2013-07-26 08:29:00,64.5,64.2,29.91,North,355,1.0,2.0,99,0.09,,,0.31,39,Wunderground v.1.15,2013-07-26 12:29:00,
2013-07-26 08:34:00,64.5,64.2,29.92,NNW,337,2.0,2.0,99,0.09,,,0.31,28,Wunderground v.1.15,2013-07-26 12:34:00,
2013-07-26 08:40:00,64.5,64.2,29.92,WNW,296,2.0,2.0,99,0.05,,,0.32,19,Wunderground v.1.15,2013-07-26 12:40:00,
2013-07-26 08:45:00,64.3,64.0,29.92,North,10,1.0,2.0,99,0.05,,,0.32,30,Wunderground v.1.15,2013-07-26 12:45:00,
2013-07-26 08:50:00,64.3,64.0,29.91,WNW,284,1.0,2.0,99,0.05,,,0.32,35,Wunderground v.1.15,2013-07-26 12:50:00,
2013-07-26 08:55:00,64.2,63.9,29.92,NW,319,1.0,2.0,99,0.04,,,0.32,30,Wunderground v.1.15,2013-07-26 12:55:00,
2013-07-26 09:00:00,64.1,63.8,29.92,North,5,1.0,1.0,99,0.04,,,0.33,28,Wunderground v.1.15,2013-07-26 13:00:00,
2013-07-26 09:05:00,64.0,63.4,29.93,North,355,1.0,3.0,98,0.04,,,0.33,26,Wunderground v.1.15,2013-07-26 13:05:00,
2013-07-26 09:11:00,64.0,63.4,29.93,North,5,1.0,2.0,98,0.04,,,0.33,32,Wunderground v.1.15,2013-07-26 13:11:00,
2013-07-26 09:16:00,64.0,63.7,29.93,NW,309,1.0,2.0,99,0.00,,,0.33,28,Wunderground v.1.15,2013-07-26 13:16:00,
2013-07-26 09:23:00,63.7,63.4,29.93,North,349,1.0,3.0,99,0.00,,,0.33,32,Wunderground v.1.15,2013-07-26 13:23:00,
2013-07-26 09:28:00,63.7,63.4,29.92,NNW,332,1.0,3.0,99,0.00,,,0.33,39,Wunderground v.1.15,2013-07-26 13:28:00,
2013-07-26 09:33:00,63.6,63.3,29.92,WNW,295,2.0,2.0,99,0.00,,,0.34,44,Wunderground v.1.15,2013-07-26 13:33:00,
2013-07-26 09:39:00,63.6,63.3,29.92,NNW,328,2.0,3.0,99,0.00,,,0.34,46,Wunderground v.1.15,2013-07-26 13:39:00,
2013-07-26 09:44:00,63.5,63.2,29.92,NNW,344,2.0,3.0,99,0.04,,,0.35,69,Wunderground v.1.15,2013-07-26 13:44:00,
2013-07-26 09:50:00,63.6,63.3,29.92,NNW,333,2.0,2.0,99,0.04,,,0.35,70,Wunderground v.1.15,2013-07-26 13:50:00,
2013-07-26 09:55:00,63.7,63.4,29.92,NW,318,2.0,4.0,99,0.04,,,0.35,102,Wunderground v.1.15,2013-07-26 13:55:00,
2013-07-26 10:00:00,63.9,63.6,29.92,NNW,331,2.0,2.0,99,0.04,,,0.36,100,Wunderground v.1.15,2013-07-26 14:00:00,
2013-07-26 10:05:00,63.9,63.6,29.92,NNW,330,1.0,2.0,99,0.04,,,0.36,111,Wunderground v.1.15,2013-07-26 14:05:00,
2013-07-26 10:11:00,64.0,63.7,29.91,NW,321,1.0,2.0,99,0.04,,,0.36,139,Wunderground v.1.15,2013-07-26 14:11:00,
2013-07-26 10:18:00,64.3,64.0,29.91,NW,306,1.0,4.0,99,0.04,,,0.37,192,Wunderground v.1.15,2013-07-26 14:18:00,
2013-07-26 10:23:00,64.3,64.0,29.91,WNW,290,2.0,3.0,99,0.04,,,0.37,192,Wunderground v.1.15,2013-07-26 14:23:00,
2013-07-26 10:28:00,64.6,64.3,29.91,North,355,2.0,3.0,99,0.04,,,0.37,179,Wunderground v.1.15,2013-07-26 14:28:00,
2013-07-26 10:33:00,64.7,64.4,29.91,North,355,1.0,2.0,99,0.04,,,0.38,197,Wunderground v.1.15,2013-07-26 14:33:00,
2013-07-26 10:38:00,64.6,64.3,29.91,NW,314,2.0,2.0,99,0.04,,,0.38,207,Wunderground v.1.15,2013-07-26 14:38:00,
2013-07-26 10:43:00,64.8,64.5,29.91,North,5,2.0,2.0,99,0.04,,,0.38,188,Wunderground v.1.15,2013-07-26 14:43:00,
2013-07-26 10:48:00,64.9,64.6,29.91,NNW,344,2.0,3.0,99,0.00,,,0.38,183,Wunderground v.1.15,2013-07-26 14:48:00,
2013-07-26 10:54:00,64.9,64.6,29.92,North,355,2.0,3.0,99,0.00,,,0.39,160,Wunderground v.1.15,2013-07-26 14:54:00,
2013-07-26 11:00:00,65.0,64.7,29.91,NNE,13,2.0,2.0,99,0.00,,,0.39,156,Wunderground v.1.15,2013-07-26 15:00:00,
2013-07-26 11:05:00,64.9,64.3,29.91,ENE,72,2.0,4.0,98,0.00,,,0.39,151,Wunderground v.1.15,2013-07-26 15:05:00,
2013-07-26 11:10:00,64.8,64.2,29.91,North,5,2.0,2.0,98,0.00,,,0.39,149,Wunderground v.1.15,2013-07-26 15:10:00,
2013-07-26 11:15:00,64.8,64.2,29.92,NW,320,2.0,2.0,98,0.00,,,0.39,111,Wunderground v.1.15,2013-07-26 15:15:00,
2013-07-26 11:21:00,64.6,64.0,29.92,WNW,293,2.0,6.0,98,0.00,,,0.39,95,Wunderground v.1.15,2013-07-26 15:21:00,
2013-07-26 11:26:00,64.8,64.2,29.92,NNE,33,2.0,6.0,98,0.00,,,0.39,100,Wunderground v.1.15,2013-07-26 15:26:00,
2013-07-26 11:31:00,64.9,64.6,29.92,NNE,32,2.0,2.0,99,0.00,,,0.40,144,Wunderground v.1.15,2013-07-26 15:31:00,
2013-07-26 11:38:00,64.9,64.3,29.92,NNW,327,2.0,5.0,98,0.00,,,0.40,167,Wunderground v.1.15,2013-07-26 15:38:00,
2013-07-26 11:43:00,65.0,64.4,29.91,WNW,293,1.0,3.0,98,0.04,,,0.40,188,Wunderground v.1.15,2013-07-26 15:43:00,
2013-07-26 11:49:00,65.2,64.6,29.91,NW,324,1.0,3.0,98,0.04,,,0.41,236,Wunderground v.1.15,2013-07-26 15:49:00,
2013-07-26 11:54:00,65.7,65.4,29.91,ESE,107,1.0,5.0,99,0.04,,,0.41,230,Wunderground v.1.15,2013-07-26 15:54:00,
2013-07-26 12:15:00,65.7,65.1,29.91,NW,321,1.0,1.0,98,0.00,,,0.41,121,Wunderground v.1.15,2013-07-26 16:15:00,
2013-07-26 12:21:00,65.8,65.2,29.91,West,269,1.0,3.0,98,0.00,,,0.41,141,Wunderground v.1.15,2013-07-26 16:21:00,
2013-07-26 12:27:00,65.7,65.1,29.91,North,350,1.0,3.0,98,0.00,,,0.41,155,Wunderground v.1.15,2013-07-26 16:27:00,
2013-07-26 12:33:00,65.9,65.3,29.91,North,355,1.0,1.0,98,0.00,,,0.41,171,Wunderground v.1.15,2013-07-26 16:33:00,
2013-07-26 12:38:00,65.8,65.2,29.91,NNE,25,1.0,4.0,98,0.00,,,0.42,118,Wunderground v.1.15,2013-07-26 16:38:00,
2013-07-26 12:43:00,65.8,65.2,29.91,NW,313,1.0,2.0,98,0.00,,,0.42,142,Wunderground v.1.15,2013-07-26 16:43:00,
2013-07-26 12:48:00,65.8,65.2,29.91,NNW,342,1.0,2.0,98,0.00,,,0.42,114,Wunderground v.1.15,2013-07-26 16:48:00,
2013-07-26 12:54:00,65.8,65.2,29.91,WNW,288,1.0,2.0,98,0.00,,,0.42,105,Wunderground v.1.15,2013-07-26 16:54:00,
2013-07-26 13:00:00,66.0,65.4,29.91,NW,318,1.0,1.0,98,0.00,,,0.42,156,Wunderground v.1.15,2013-07-26 17:00:00,
2013-07-26 13:05:00,66.1,65.5,29.90,North,351,1.0,2.0,98,0.00,,,0.42,165,Wunderground v.1.15,2013-07-26 17:05:00,
2013-07-26 13:11:00,66.3,65.7,29.90,WNW,300,2.0,2.0,98,0.00,,,0.42,141,Wunderground v.1.15,2013-07-26 17:11:00,
2013-07-26 13:18:00,66.3,65.7,29.91,NNW,331,2.0,5.0,98,0.00,,,0.42,202,Wunderground v.1.15,2013-07-26 17:18:00,
2013-07-26 13:23:00,66.3,65.7,29.90,NW,316,1.0,4.0,98,0.00,,,0.42,199,Wunderground v.1.15,2013-07-26 17:23:00,
2013-07-26 13:28:00,66.4,65.8,29.90,NNW,342,1.0,6.0,98,0.00,,,0.42,158,Wunderground v.1.15,2013-07-26 17:28:00,
2013-07-26 13:33:00,66.5,65.9,29.90,North,355,1.0,1.0,98,0.00,,,0.42,153,Wunderground v.1.15,2013-07-26 17:33:00,
2013-07-26 13:39:00,66.6,66.0,29.90,North,350,1.0,1.0,98,0.00,,,0.42,120,Wunderground v.1.15,2013-07-26 17:39:00,
2013-07-26 13:44:00,66.5,65.9,29.90,NW,318,1.0,1.0,98,0.00,,,0.42,116,Wunderground v.1.15,2013-07-26 17:44:00,
2013-07-26 13:49:00,66.5,65.9,29.90,West,279,1.0,2.0,98,0.00,,,0.42,128,Wunderground v.1.15,2013-07-26 17:49:00,
2013-07-26 13:54:00,66.5,65.9,29.90,East,90,1.0,2.0,98,0.00,,,0.42,100,Wunderground v.1.15,2013-07-26 17:54:00,
2013-07-26 14:00:00,66.2,65.3,29.91,North,355,1.0,2.0,97,0.00,,,0.42,100,Wunderground v.1.15,2013-07-26 18:00:00,
2013-07-26 14:05:00,66.5,65.9,29.91,North,5,1.0,2.0,98,0.00,,,0.42,81,Wunderground v.1.15,2013-07-26 18:05:00,
2013-07-26 14:11:00,66.2,65.6,29.91,WSW,238,1.0,1.0,98,0.00,,,0.42,88,Wunderground v.1.15,2013-07-26 18:11:00,
2013-07-26 14:16:00,66.1,65.5,29.91,North,355,1.0,2.0,98,0.00,,,0.42,79,Wunderground v.1.15,2013-07-26 18:16:00,
2013-07-26 14:23:00,66.2,65.6,29.91,North,5,1.0,2.0,98,0.00,,,0.42,88,Wunderground v.1.15,2013-07-26 18:23:00,
2013-07-26 14:29:00,66.2,65.6,29.91,WNW,293,1.0,3.0,98,0.00,,,0.42,90,Wunderground v.1.15,2013-07-26 18:29:00,
2013-07-26 14:34:00,66.2,65.6,29.91,NW,307,0.0,1.0,98,0.00,,,0.42,88,Wunderground v.1.15,2013-07-26 18:34:00,
2013-07-26 14:40:00,66.2,65.6,29.92,NNE,28,0.0,0.0,98,0.00,,,0.42,86,Wunderground v.1.15,2013-07-26 18:40:00,
2013-07-26 14:45:00,66.2,65.6,29.92,NW,323,1.0,4.0,98,0.00,,,0.42,70,Wunderground v.1.15,2013-07-26 18:45:00,
2013-07-26 14:51:00,66.2,65.6,29.92,NNE,18,1.0,2.0,98,0.00,,,0.42,62,Wunderground v.1.15,2013-07-26 18:51:00,
2013-07-26 14:58:00,66.2,65.6,29.92,NNW,338,0.0,2.0,98,0.00,,,0.42,58,Wunderground v.1.15,2013-07-26 18:58:00,
2013-07-26 15:03:00,66.2,65.6,29.92,NW,325,1.0,2.0,98,0.00,,,0.42,47,Wunderground v.1.15,2013-07-26 19:03:00,
2013-07-26 15:09:00,66.0,65.4,29.92,West,272,1.0,1.0,98,0.00,,,0.43,54,Wunderground v.1.15,2013-07-26 19:09:00,
2013-07-26 15:14:00,66.1,65.5,29.92,WNW,299,1.0,1.0,98,0.00,,,0.43,63,Wunderground v.1.15,2013-07-26 19:14:00,
2013-07-26 15:19:00,66.2,65.6,29.92,NW,321,0.0,0.0,98,0.00,,,0.43,62,Wunderground v.1.15,2013-07-26 19:19:00,
2013-07-26 15:25:00,66.2,65.6,29.92,WSW,247,0.0,0.0,98,0.04,,,0.44,51,Wunderground v.1.15,2013-07-26 19:25:00,
2013-07-26 15:30:00,66.4,65.8,29.92,East,88,0.0,0.0,98,0.04,,,0.44,58,Wunderground v.1.15,2013-07-26 19:30:00,
2013-07-26 15:37:00,66.5,65.9,29.92,West,261,0.0,1.0,98,0.07,,,0.45,76,Wunderground v.1.15,2013-07-26 19:37:00,
2013-07-26 15:43:00,66.5,65.9,29.92,North,5,0.0,2.0,98,0.09,,,0.46,63,Wunderground v.1.15,2013-07-26 19:43:00,
2013-07-26 15:48:00,66.5,65.9,29.92,West,259,1.0,2.0,98,0.09,,,0.47,76,Wunderground v.1.15,2013-07-26 19:48:00,
2013-07-26 15:53:00,66.5,65.9,29.92,WNW,294,0.0,3.0,98,0.08,,,0.47,76,Wunderground v.1.15,2013-07-26 19:53:00,
2013-07-26 16:00:00,66.6,66.0,29.92,West,277,1.0,1.0,98,0.04,,,0.47,63,Wunderground v.1.15,2013-07-26 20:00:00,
2013-07-26 16:06:00,66.6,66.3,29.93,WNW,298,1.0,1.0,99,0.04,,,0.48,74,Wunderground v.1.15,2013-07-26 20:06:00,
2013-07-26 16:12:00,66.8,66.5,29.93,NNW,343,0.0,0.0,99,0.04,,,0.48,56,Wunderground v.1.15,2013-07-26 20:12:00,
2013-07-26 16:17:00,66.8,66.2,29.93,WSW,256,1.0,2.0,98,0.04,,,0.49,97,Wunderground v.1.15,2013-07-26 20:17:00,
2013-07-26 16:23:00,67.0,66.4,29.93,NW,310,1.0,1.0,98,0.04,,,0.49,100,Wunderground v.1.15,2013-07-26 20:23:00,
2013-07-26 16:28:00,67.2,66.6,29.93,NNW,341,1.0,3.0,98,0.06,,,0.50,58,Wunderground v.1.15,2013-07-26 20:28:00,
2013-07-26 16:33:00,67.2,66.6,29.93,WSW,257,1.0,1.0,98,0.06,,,0.50,39,Wunderground v.1.15,2013-07-26 20:33:00,
2013-07-26 16:39:00,67.2,66.6,29.93,NNE,23,0.0,0.0,98,0.05,,,0.50,26,Wunderground v.1.15,2013-07-26 20:39:00,
2013-07-26 16:44:00,67.1,66.5,29.93,NNW,345,0.0,1.0,98,0.00,,,0.50,26,Wunderground v.1.15,2013-07-26 20:44:00,
2013-07-26 16:51:00,66.9,66.3,29.93,West,281,1.0,1.0,98,0.00,,,0.50,30,Wunderground v.1.15,2013-07-26 20:51:00,
2013-07-26 16:57:00,66.8,66.2,29.94,SW,215,0.0,1.0,98,0.00,,,0.50,28,Wunderground v.1.15,2013-07-26 20:57:00,
2013-07-26 17:03:00,66.9,66.3,29.94,WSW,240,0.0,1.0,98,0.00,,,0.50,25,Wunderground v.1.15,2013-07-26 21:03:00,
2013-07-26 17:08:00,66.9,66.3,29.94,West,267,0.0,1.0,98,0.00,,,0.50,16,Wunderground v.1.15,2013-07-26 21:08:00,
2013-07-26 17:13:00,66.9,66.3,29.95,West,281,0.0,2.0,98,0.00,,,0.51,16,Wunderground v.1.15,2013-07-26 21:13:00,
2013-07-26 17:18:00,66.9,66.3,29.95,North,5,0.0,2.0,98,0.00,,,0.51,19,Wunderground v.1.15,2013-07-26 21:18:00,
2013-07-26 17:24:00,66.9,66.3,29.95,NW,326,1.0,3.0,98,0.00,,,0.51,19,Wunderground v.1.15,2013-07-26 21:24:00,
2013-07-26 17:29:00,66.8,66.2,29.95,WNW,288,1.0,3.0,98,0.00,,,0.51,19,Wunderground v.1.15,2013-07-26 21:29:00,
2013-07-26 17:34:00,66.8,66.2,29.95,WNW,296,1.0,1.0,98,0.00,,,0.52,19,Wunderground v.1.15,2013-07-26 21:34:00,
2013-07-26 17:39:00,66.8,66.2,29.96,North,355,1.0,1.0,98,0.10,,,0.53,26,Wunderground v.1.15,2013-07-26 21:39:00,
2013-07-26 17:45:00,66.8,66.2,29.96,NW,318,1.0,2.0,98,0.12,,,0.54,19,Wunderground v.1.15,2013-07-26 21:45:00,
2013-07-26 17:50:00,66.8,66.2,29.96,SW,230,1.0,1.0,98,0.15,,,0.56,25,Wunderground v.1.15,2013-07-26 21:50:00,
2013-07-26 17:56:00,66.7,66.1,29.96,North,5,0.0,1.0,98,0.12,,,0.57,21,Wunderground v.1.15,2013-07-26 21:56:00,
2013-07-26 18:03:00,66.7,66.1,29.96,NW,309,0.0,2.0,98,0.09,,,0.58,25,Wunderground v.1.15,2013-07-26 22:03:00,
2013-07-26 18:08:00,66.7,66.1,29.96,North,355,1.0,2.0,98,0.11,,,0.59,35,Wunderground v.1.15,2013-07-26 22:08:00,
2013-07-26 18:13:00,66.8,66.2,29.97,WNW,290,1.0,7.0,98,0.09,,,0.59,33,Wunderground v.1.15,2013-07-26 22:13:00,
2013-07-26 18:18:00,66.8,66.2,29.97,SW,227,1.0,7.0,98,0.06,,,0.60,32,Wunderground v.1.15,2013-07-26 22:18:00,
2013-07-26 18:24:00,66.8,66.2,29.97,WSW,240,1.0,4.0,98,0.06,,,0.60,32,Wunderground v.1.15,2013-07-26 22:24:00,
2013-07-26 18:29:00,66.8,66.2,29.97,SSW,209,0.0,2.0,98,0.06,,,0.61,49,Wunderground v.1.15,2013-07-26 22:29:00,
2013-07-26 18:35:00,66.9,66.3,29.98,West,274,0.0,2.0,98,0.08,,,0.62,32,Wunderground v.1.15,2013-07-26 22:35:00,
2013-07-26 18:40:00,66.9,66.3,29.98,WNW,288,0.0,1.0,98,0.08,,,0.62,35,Wunderground v.1.15,2013-07-26 22:40:00,
2013-07-26 18:46:00,67.0,66.4,29.98,NW,311,0.0,1.0,98,0.05,,,0.62,33,Wunderground v.1.15,2013-07-26 22:46:00,
2013-07-26 18:51:00,67.1,66.5,29.98,WNW,302,0.0,0.0,98,0.05,,,0.63,32,Wunderground v.1.15,2013-07-26 22:51:00,
2013-07-26 18:56:00,67.0,66.4,29.98,NNW,331,0.0,1.0,98,0.05,,,0.63,35,Wunderground v.1.15,2013-07-26 22:56:00,
2013-07-26 19:03:00,67.0,66.4,29.98,NW,311,0.0,0.0,98,0.00,,,0.63,23,Wunderground v.1.15,2013-07-26 23:03:00,
2013-07-26 19:08:00,67.0,66.4,29.98,WNW,282,0.0,1.0,98,0.00,,,0.64,21,Wunderground v.1.15,2013-07-26 23:08:00,
2013-07-26 19:14:00,67.0,66.4,29.98,WNW,287,0.0,0.0,98,0.00,,,0.64,14,Wunderground v.1.15,2013-07-26 23:14:00,
2013-07-26 19:19:00,67.0,66.4,29.98,WNW,287,0.0,0.0,98,0.00,,,0.64,5,Wunderground v.1.15,2013-07-26 23:19:00,
2013-07-26 19:24:00,66.9,66.3,29.98,NNW,335,0.0,0.0,98,0.00,,,0.64,0,Wunderground v.1.15,2013-07-26 23:24:00,
2013-07-26 19:30:00,66.9,66.6,29.98,NNW,340,0.0,0.0,99,0.00,,,0.64,0,Wunderground v.1.15,2013-07-26 23:30:00,
2013-07-26 19:35:00,66.8,66.5,29.98,NNW,341,0.0,0.0,99,0.00,,,0.64,0,Wunderground v.1.15,2013-07-26 23:35:00,
2013-07-26 19:40:00,66.8,66.5,29.98,NNW,341,0.0,0.0,99,0.00,,,0.64,0,Wunderground v.1.15,2013-07-26 23:40:00,
2013-07-26 19:45:00,66.7,66.4,29.99,West,280,0.0,0.0,99,0.00,,,0.64,0,Wunderground v.1.15,2013-07-26 23:45:00,
2013-07-26 19:51:00,66.6,66.3,29.99,West,280,0.0,0.0,99,0.00,,,0.64,0,Wunderground v.1.15,2013-07-26 23:51:00,
2013-07-26 19:56:00,66.6,66.0,29.99,West,279,0.0,0.0,98,0.00,,,0.64,0,Wunderground v.1.15,2013-07-26 23:56:00,
2013-07-26 20:03:00,66.6,66.0,29.99,West,279,0.0,0.0,98,0.00,,,0.64,0,Wunderground v.1.15,2013-07-27 00:03:00,
2013-07-26 20:08:00,66.6,66.0,29.99,West,279,0.0,0.0,98,0.00,,,0.64,0,Wunderground v.1.15,2013-07-27 00:08:00,
2013-07-26 20:13:00,66.7,66.4,29.99,West,279,0.0,0.0,99,0.00,,,0.64,0,Wunderground v.1.15,2013-07-27 00:13:00,
2013-07-26 20:18:00,66.6,66.3,29.99,West,279,0.0,0.0,99,0.00,,,0.64,0,Wunderground v.1.15,2013-07-27 00:18:00,
2013-07-26 20:23:00,66.6,66.3,29.99,West,279,0.0,0.0,99,0.00,,,0.64,0,Wunderground v.1.15,2013-07-27 00:23:00,
2013-07-26 20:29:00,66.6,66.3,29.99,West,279,0.0,0.0,99,0.00,,,0.64,0,Wunderground v.1.15,2013-07-27 00:29:00,
2013-07-26 20:35:00,66.6,66.3,29.99,West,279,0.0,0.0,99,0.00,,,0.64,0,Wunderground v.1.15,2013-07-27 00:35:00,
2013-07-26 20:41:00,66.6,66.3,30.00,West,279,0.0,0.0,99,0.00,,,0.64,0,Wunderground v.1.15,2013-07-27 00:41:00,
2013-07-26 20:47:00,66.7,66.4,30.00,West,279,0.0,0.0,99,0.00,,,0.64,0,Wunderground v.1.15,2013-07-27 00:47:00,
2013-07-26 20:52:00,66.7,66.4,30.00,West,279,0.0,0.0,99,0.00,,,0.64,0,Wunderground v.1.15,2013-07-27 00:52:00,
2013-07-26 20:58:00,66.7,66.4,30.00,West,279,0.0,0.0,99,0.00,,,0.64,0,Wunderground v.1.15,2013-07-27 00:58:00,
2013-07-26 21:03:00,66.7,66.4,30.00,West,279,0.0,0.0,99,0.00,,,0.64,0,Wunderground v.1.15,2013-07-27 01:03:00,
2013-07-26 21:08:00,66.7,66.4,30.00,West,279,0.0,0.0,99,0.00,,,0.64,0,Wunderground v.1.15,2013-07-27 01:08:00,
2013-07-26 21:14:00,66.7,66.4,30.00,WNW,282,0.0,0.0,99,0.00,,,0.64,0,Wunderground v.1.15,2013-07-27 01:14:00,
2013-07-26 21:19:00,66.7,66.4,30.00,WNW,282,0.0,0.0,99,0.00,,,0.64,0,Wunderground v.1.15,2013-07-27 01:19:00,
2013-07-26 21:24:00,66.7,66.4,30.00,WNW,282,0.0,0.0,99,0.00,,,0.64,0,Wunderground v.1.15,2013-07-27 01:24:00,
2013-07-26 21:29:00,66.6,66.3,30.00,West,274,0.0,0.0,99,0.00,,,0.64,0,Wunderground v.1.15,2013-07-27 01:29:00,
2013-07-26 21:36:00,66.6,66.3,30.00,North,355,0.0,0.0,99,0.00,,,0.64,0,Wunderground v.1.15,2013-07-27 01:36:00,
2013-07-26 21:41:00,66.5,66.2,30.00,North,355,0.0,0.0,99,0.00,,,0.64,0,Wunderground v.1.15,2013-07-27 01:41:00,
2013-07-26 21:48:00,66.3,66.0,30.00,NNW,341,0.0,0.0,99,0.00,,,0.64,0,Wunderground v.1.15,2013-07-27 01:48:00,
2013-07-26 21:53:00,66.3,66.0,30.01,NNW,341,0.0,0.0,99,0.00,,,0.64,0,Wunderground v.1.15,2013-07-27 01:53:00,
2013-07-26 21:58:00,66.2,65.9,30.01,NNW,338,0.0,0.0,99,0.00,,,0.65,0,Wunderground v.1.15,2013-07-27 01:58:00,
2013-07-26 22:04:00,66.1,65.8,30.01,East,94,0.0,0.0,99,0.00,,,0.65,0,Wunderground v.1.15,2013-07-27 02:04:00,
2013-07-26 22:09:00,66.0,65.7,30.01,East,93,0.0,0.0,99,0.00,,,0.65,0,Wunderground v.1.15,2013-07-27 02:09:00,
2013-07-26 22:15:00,65.9,65.3,30.01,East,94,0.0,0.0,98,0.00,,,0.65,0,Wunderground v.1.15,2013-07-27 02:15:00,
2013-07-26 22:20:00,65.8,65.2,30.02,East,94,0.0,0.0,98,0.00,,,0.65,0,Wunderground v.1.15,2013-07-27 02:20:00,
2013-07-26 22:25:00,65.7,65.1,30.02,East,95,0.0,0.0,98,0.00,,,0.65,0,Wunderground v.1.15,2013-07-27 02:25:00,
2013-07-26 22:30:00,65.6,65.0,30.02,East,95,0.0,0.0,98,0.00,,,0.65,0,Wunderground v.1.15,2013-07-27 02:30:00,
2013-07-26 22:36:00,65.5,64.9,30.01,East,99,0.0,0.0,98,0.00,,,0.65,0,Wunderground v.1.15,2013-07-27 02:36:00,
2013-07-26 22:41:00,65.5,64.9,30.01,East,99,0.0,0.0,98,0.00,,,0.65,0,Wunderground v.1.15,2013-07-27 02:41:00,
2013-07-26 22:46:00,65.5,64.9,30.02,East,99,0.0,0.0,98,0.00,,,0.65,0,Wunderground v.1.15,2013-07-27 02:46:00,
2013-07-26 22:51:00,65.4,64.8,30.02,East,99,0.0,0.0,98,0.00,,,0.65,0,Wunderground v.1.15,2013-07-27 02:51:00,
2013-07-26 22:58:00,65.3,64.7,30.02,South,179,0.0,0.0,98,0.00,,,0.65,0,Wunderground v.1.15,2013-07-27 02:58:00,
2013-07-26 23:03:00,65.2,64.6,30.02,NNW,336,0.0,0.0,98,0.00,,,0.65,0,Wunderground v.1.15,2013-07-27 03:03:00,
2013-07-26 23:08:00,65.1,64.5,30.02,NNW,336,0.0,0.0,98,0.00,,,0.65,0,Wunderground v.1.15,2013-07-27 03:08:00,
2013-07-26 23:14:00,65.0,64.4,30.02,NNW,336,0.0,0.0,98,0.00,,,0.65,0,Wunderground v.1.15,2013-07-27 03:14:00,
2013-07-26 23:19:00,64.9,64.3,30.02,NNW,336,0.0,0.0,98,0.00,,,0.65,0,Wunderground v.1.15,2013-07-27 03:19:00,
2013-07-26 23:25:00,64.8,64.2,30.02,WNW,294,0.0,0.0,98,0.00,,,0.65,0,Wunderground v.1.15,2013-07-27 03:25:00,
2013-07-26 23:31:00,64.7,64.1,30.02,WNW,294,0.0,0.0,98,0.00,,,0.65,0,Wunderground v.1.15,2013-07-27 03:31:00,
2013-07-26 23:36:00,64.6,64.0,30.03,WNW,294,0.0,0.0,98,0.00,,,0.65,0,Wunderground v.1.15,2013-07-27 03:36:00,
2013-07-26 23:42:00,64.5,63.9,30.03,WNW,301,0.0,0.0,98,0.00,,,0.65,0,Wunderground v.1.15,2013-07-27 03:42:00,
2013-07-26 23:47:00,64.4,63.8,30.03,WNW,298,0.0,1.0,98,0.00,,,0.65,0,Wunderground v.1.15,2013-07-27 03:47:00,
2013-07-26 23:53:00,64.3,63.7,30.03,WNW,298,0.0,0.0,98,0.00,,,0.65,0,Wunderground v.1.15,2013-07-27 03:53:00,
2013-07-26 23:59:00,64.3,63.7,30.03,WNW,298,0.0,0.0,98,0.00,,,0.65,0,Wunderground v.1.15,2013-07-27 03:59:00,